| time (UTC) | temp C | wind direction | speed KPH | gust KPH | rain 1hr cm | rain 24hr cm | rain mn cm | humidity % | barometer mb |
| 20260505041413 | 31 | 271 | 3.2 | 9.7 | 0.00 | 0.00 | 0.00 | 72 | 1009.0 |
| 20260505040913 | 31 | 262 | 0.0 | 8.0 | 0.00 | 0.00 | 0.00 | 72 | 1009.0 |
| 20260505040414 | 31 | 264 | 4.8 | 9.7 | 0.00 | 0.00 | 0.00 | 74 | 1009.0 |
| 20260505035913 | 30 | 214 | 0.0 | 9.7 | 0.00 | 0.00 | 0.00 | 75 | 1009.0 |
| 20260505035413 | 30 | 262 | 0.0 | 9.7 | 0.00 | 0.00 | 0.00 | 76 | 1009.0 |
| 20260505034913 | 30 | 233 | 0.0 | 11.3 | 0.00 | 0.00 | 0.00 | 76 | 1009.0 |
| 20260505034413 | 30 | 281 | 4.8 | 11.3 | 0.00 | 0.00 | 0.00 | 77 | 1009.0 |
| 20260505033913 | 30 | 233 | 0.0 | 9.7 | 0.00 | 0.00 | 0.00 | 77 | 1009.0 |
| 20260505033414 | 30 | 247 | 1.6 | 9.7 | 0.00 | 0.00 | 0.00 | 77 | 1009.0 |
| 20260505032914 | 30 | 263 | 0.0 | 11.3 | 0.00 | 0.00 | 0.00 | 77 | 1009.0 |
| 20260505032413 | 30 | 257 | 0.0 | 11.3 | 0.00 | 0.00 | 0.00 | 77 | 1009.0 |
| 20260505031914 | 30 | 281 | 4.8 | 9.7 | 0.00 | 0.00 | 0.00 | 76 | 1009.0 |
| 20260505031413 | 30 | 244 | 0.0 | 11.3 | 0.00 | 0.00 | 0.00 | 77 | 1009.0 |
| 20260505030914 | 30 | 233 | 0.0 | 11.3 | 0.00 | 0.00 | 0.00 | 77 | 1009.0 |
| 20260505030415 | 30 | 274 | 4.8 | 11.3 | 0.00 | 0.00 | 0.00 | 77 | 1009.0 |
| 20260505025914 | 30 | 278 | 6.4 | 9.7 | 0.00 | 0.00 | 0.00 | 77 | 1009.0 |
| 20260505025413 | 29 | 231 | 0.0 | 8.0 | 0.00 | 0.00 | 0.00 | 78 | 1009.0 |
| 20260505024916 | 29 | 293 | 0.0 | 11.3 | 0.00 | 0.00 | 0.00 | 78 | 1009.0 |
| 20260505024415 | 29 | 282 | 0.0 | 11.3 | 0.00 | 0.00 | 0.00 | 77 | 1009.0 |
| 20260505023913 | 29 | 263 | 3.2 | 12.9 | 0.00 | 0.00 | 0.00 | 77 | 1009.0 |
| 20260505023416 | 30 | 266 | 0.0 | 12.9 | 0.00 | 0.00 | 0.00 | 77 | 1009.0 |
| 20260505022913 | 30 | 277 | 3.2 | 9.7 | 0.00 | 0.00 | 0.00 | 78 | 1009.0 |
| 20260505022413 | 30 | 283 | 0.0 | 9.7 | 0.00 | 0.00 | 0.00 | 77 | 1008.0 |
| 20260505021913 | 30 | 266 | 0.0 | 9.7 | 0.00 | 0.00 | 0.00 | 76 | 1008.0 |
| 20260505021414 | 30 | 293 | 0.0 | 9.7 | 0.00 | 0.00 | 0.00 | 76 | 1008.0 |
| 20260505020913 | 30 | 264 | 0.0 | 9.7 | 0.00 | 0.00 | 0.00 | 75 | 1008.0 |
| 20260505020413 | 30 | 247 | 0.0 | 6.4 | 0.00 | 0.00 | 0.00 | 75 | 1008.0 |
| 20260505015914 | 31 | 233 | 0.0 | 3.2 | 0.00 | 0.00 | 0.00 | 73 | 1008.0 |
| 20260505015413 | 31 | 262 | 0.0 | 0.0 | 0.00 | 0.00 | 0.00 | 72 | 1008.0 |
| 20260505014913 | 31 | 232 | 0.0 | 0.0 | 0.00 | 0.00 | 0.00 | 73 | 1008.0 |
| 20260505014413 | 31 | 232 | 0.0 | 0.0 | 0.00 | 0.00 | 0.00 | 74 | 1008.0 |
| 20260505013913 | 30 | 233 | 0.0 | 0.0 | 0.00 | 0.00 | 0.00 | 75 | 1008.0 |
| 20260505013413 | 30 | 232 | 0.0 | 0.0 | 0.00 | 0.00 | 0.00 | 76 | 1008.0 |
| 20260505012913 | 29 | 232 | 0.0 | 0.0 | 0.00 | 0.00 | 0.00 | 77 | 1008.0 |
| 20260505012417 | 28 | 233 | 0.0 | 0.0 | 0.00 | 0.00 | 0.00 | 79 | 1008.0 |
| 20260505011913 | 28 | 232 | 0.0 | 0.0 | 0.00 | 0.00 | 0.00 | 79 | 1007.0 |
| 20260505011413 | 28 | 232 | 0.0 | 0.0 | 0.00 | 0.00 | 0.00 | 79 | 1007.0 |
| 20260505010913 | 28 | 232 | 0.0 | 0.0 | 0.00 | 0.00 | 0.00 | 79 | 1007.0 |
| 20260505010413 | 28 | 232 | 0.0 | 0.0 | 0.00 | 0.00 | 0.00 | 79 | 1007.0 |
| 20260505005916 | 28 | 232 | 0.0 | 0.0 | 0.00 | 0.00 | 0.00 | 79 | 1007.0 |
| 20260505005413 | 28 | 232 | 0.0 | 0.0 | 0.00 | 0.00 | 0.00 | 81 | 1007.0 |
| 20260505004913 | 28 | 232 | 0.0 | 0.0 | 0.00 | 0.00 | 0.00 | 81 | 1007.0 |
| 20260505004413 | 28 | 232 | 0.0 | 0.0 | 0.00 | 0.00 | 0.00 | 81 | 1007.0 |
| 20260505003914 | 28 | 226 | 0.0 | 0.0 | 0.00 | 0.00 | 0.00 | 81 | 1007.0 |
| 20260505003413 | 28 | 226 | 0.0 | 0.0 | 0.00 | 0.00 | 0.00 | 81 | 1007.0 |
| 20260505002913 | 28 | 226 | 0.0 | 0.0 | 0.00 | 0.00 | 0.00 | 81 | 1007.0 |
| 20260505002413 | 28 | 226 | 0.0 | 0.0 | 0.00 | 0.00 | 0.00 | 81 | 1007.0 |
| 20260505001913 | 28 | 226 | 0.0 | 0.0 | 0.00 | 0.00 | 0.00 | 81 | 1007.0 |
| 20260505001416 | 28 | 226 | 0.0 | 0.0 | 0.00 | 0.00 | 0.00 | 81 | 1007.0 |
| 20260505000914 | 28 | 226 | 0.0 | 0.0 | 0.00 | 0.00 | 0.00 | 81 | 1007.0 |
| 20260505000414 | 28 | 226 | 0.0 | 1.6 | 0.00 | 0.00 | 0.00 | 81 | 1007.0 |
| 20260504235913 | 28 | 226 | 0.0 | 1.6 | 0.00 | 0.00 | 0.00 | 81 | 1007.0 |
| 20260504235413 | 28 | 228 | 0.0 | 0.0 | 0.00 | 0.00 | 0.00 | 81 | 1007.0 |
| 20260504234915 | 28 | 229 | 0.0 | 0.0 | 0.00 | 0.00 | 0.00 | 81 | 1007.0 |
| 20260504234413 | 28 | 228 | 0.0 | 1.6 | 0.00 | 0.00 | 0.00 | 81 | 1007.0 |
| 20260504233913 | 28 | 228 | 0.0 | 1.6 | 0.00 | 0.00 | 0.00 | 81 | 1007.0 |
| 20260504233413 | 28 | 258 | 0.0 | 1.6 | 0.00 | 0.00 | 0.00 | 81 | 1007.0 |
| 20260504232913 | 28 | 238 | 0.0 | 1.6 | 0.00 | 0.00 | 0.00 | 81 | 1007.0 |
| 20260504232413 | 28 | 240 | 0.0 | 1.6 | 0.00 | 0.00 | 0.00 | 81 | 1007.0 |
| 20260504231914 | 28 | 245 | 0.0 | 1.6 | 0.00 | 0.00 | 0.00 | 81 | 1007.0 |
| 20260504231414 | 28 | 248 | 0.0 | 1.6 | 0.00 | 0.00 | 0.00 | 81 | 1007.0 |
| 20260504230913 | 28 | 233 | 0.0 | 1.6 | 0.00 | 0.00 | 0.00 | 81 | 1007.0 |
| 20260504230414 | 28 | 262 | 0.0 | 1.6 | 0.00 | 0.00 | 0.00 | 82 | 1007.0 |
| 20260504225913 | 28 | 262 | 0.0 | 1.6 | 0.00 | 0.00 | 0.00 | 82 | 1007.0 |
| 20260504225413 | 28 | 220 | 0.0 | 6.4 | 0.00 | 0.00 | 0.00 | 81 | 1007.0 |
| 20260504224913 | 28 | 238 | 4.8 | 6.4 | 0.00 | 0.00 | 0.00 | 81 | 1007.0 |
| 20260504224413 | 28 | 219 | 6.4 | 8.0 | 0.00 | 0.00 | 0.00 | 81 | 1007.0 |
| 20260504223915 | 28 | 232 | 0.0 | 8.0 | 0.00 | 0.00 | 0.00 | 81 | 1007.0 |
| 20260504223413 | 28 | 240 | 0.0 | 6.4 | 0.00 | 0.00 | 0.00 | 81 | 1007.0 |
| 20260504222913 | 28 | 287 | 0.0 | 6.4 | 0.00 | 0.00 | 0.00 | 81 | 1007.0 |
| 20260504222414 | 28 | 255 | 1.6 | 1.6 | 0.00 | 0.00 | 0.00 | 81 | 1007.0 |
| 20260504221913 | 28 | 240 | 0.0 | 1.6 | 0.00 | 0.00 | 0.00 | 81 | 1007.0 |
| 20260504221413 | 28 | 271 | 0.0 | 8.0 | 0.00 | 0.00 | 0.00 | 81 | 1007.0 |
| 20260504220913 | 28 | 234 | 0.0 | 8.0 | 0.00 | 0.00 | 0.00 | 82 | 1007.0 |
| 20260504220414 | 28 | 229 | 1.6 | 8.0 | 0.00 | 0.00 | 0.00 | 82 | 1007.0 |
| 20260504215913 | 28 | 219 | 0.0 | 4.8 | 0.00 | 0.00 | 0.00 | 81 | 1007.0 |
| 20260504215414 | 28 | 217 | 0.0 | 9.7 | 0.00 | 0.00 | 0.00 | 82 | 1007.0 |
| 20260504214914 | 28 | 210 | 0.0 | 9.7 | 0.00 | 0.00 | 0.00 | 82 | 1007.0 |
| 20260504214413 | 27 | 231 | 1.6 | 9.7 | 0.00 | 0.00 | 0.00 | 82 | 1008.0 |
| 20260504213913 | 27 | 236 | 0.0 | 8.0 | 0.00 | 0.00 | 0.00 | 83 | 1008.0 |
| 20260504213413 | 27 | 279 | 3.2 | 8.0 | 0.00 | 0.00 | 0.00 | 83 | 1008.0 |
| 20260504212914 | 27 | 251 | 0.0 | 8.0 | 0.00 | 0.00 | 0.00 | 83 | 1008.0 |
| 20260504212414 | 27 | 273 | 0.0 | 8.0 | 0.00 | 0.00 | 0.00 | 83 | 1008.0 |
| 20260504211914 | 27 | 240 | 3.2 | 8.0 | 0.00 | 0.00 | 0.00 | 84 | 1008.0 |
| 20260504211413 | 27 | 264 | 3.2 | 12.9 | 0.00 | 0.00 | 0.00 | 83 | 1008.0 |
| 20260504210913 | 27 | 270 | 3.2 | 12.9 | 0.00 | 0.00 | 0.00 | 84 | 1008.0 |
| 20260504210413 | 27 | 264 | 4.8 | 20.9 | 0.00 | 0.00 | 0.00 | 84 | 1008.0 |
| 20260504205913 | 27 | 274 | 8.0 | 20.9 | 0.00 | 0.00 | 0.00 | 84 | 1008.0 |
| 20260504205414 | 27 | 285 | 16.1 | 17.7 | 0.00 | 0.00 | 0.00 | 84 | 1008.0 |
| 20260504204913 | 27 | 297 | 1.6 | 17.7 | 0.00 | 0.00 | 0.00 | 84 | 1008.0 |
| 20260504204415 | 28 | 295 | 12.9 | 17.7 | 0.00 | 0.00 | 0.00 | 83 | 1008.0 |
| 20260504203913 | 28 | 284 | 9.7 | 16.1 | 0.00 | 0.00 | 0.00 | 83 | 1008.0 |
| 20260504203414 | 28 | 282 | 3.2 | 12.9 | 0.00 | 0.00 | 0.00 | 83 | 1008.0 |
| 20260504202916 | 28 | 297 | 0.0 | 16.1 | 0.00 | 0.00 | 0.00 | 83 | 1008.0 |
| 20260504202413 | 28 | 292 | 4.8 | 16.1 | 0.00 | 0.00 | 0.00 | 82 | 1008.0 |
| 20260504201914 | 28 | 306 | 9.7 | 16.1 | 0.00 | 0.00 | 0.00 | 83 | 1008.0 |
| 20260504201418 | 28 | 291 | 6.4 | 14.5 | 0.00 | 0.00 | 0.00 | 82 | 1008.0 |
| 20260504200913 | 28 | 288 | 0.0 | 8.0 | 0.00 | 0.00 | 0.00 | 81 | 1008.0 |
| 20260504200413 | 28 | 289 | 0.0 | 1.6 | 0.00 | 0.00 | 0.00 | 81 | 1007.0 |
| 20260504195914 | 28 | 210 | 0.0 | 0.0 | 0.00 | 0.00 | 0.00 | 81 | 1007.0 |
| 20260504195414 | 28 | 204 | 0.0 | 4.8 | 0.00 | 0.00 | 0.00 | 81 | 1007.0 |
| 20260504194913 | 28 | 203 | 0.0 | 4.8 | 0.00 | 0.00 | 0.00 | 81 | 1007.0 |
| 20260504194414 | 28 | 196 | 0.0 | 1.6 | 0.00 | 0.00 | 0.00 | 81 | 1007.0 |
| 20260504193913 | 28 | 176 | 0.0 | 0.0 | 0.00 | 0.00 | 0.00 | 81 | 1008.0 |
| 20260504193413 | 28 | 162 | 0.0 | 1.6 | 0.00 | 0.00 | 0.00 | 81 | 1008.0 |
| 20260504192913 | 28 | 221 | 0.0 | 1.6 | 0.00 | 0.00 | 0.00 | 81 | 1008.0 |
| 20260504192414 | 28 | 156 | 0.0 | 6.4 | 0.00 | 0.00 | 0.00 | 80 | 1008.0 |
| 20260504191914 | 28 | 205 | 0.0 | 8.0 | 0.00 | 0.00 | 0.00 | 80 | 1008.0 |
| 20260504191414 | 28 | 190 | 0.0 | 8.0 | 0.00 | 0.00 | 0.00 | 80 | 1008.0 |
| 20260504190913 | 28 | 153 | 0.0 | 8.0 | 0.00 | 0.00 | 0.00 | 80 | 1008.0 |
| 20260504190414 | 28 | 196 | 0.0 | 8.0 | 0.00 | 0.00 | 0.00 | 80 | 1008.0 |
| 20260504185913 | 28 | 217 | 3.2 | 8.0 | 0.00 | 0.00 | 0.00 | 80 | 1008.0 |
| 20260504185413 | 28 | 139 | 0.0 | 6.4 | 0.00 | 0.00 | 0.00 | 80 | 1008.0 |
| 20260504184914 | 28 | 146 | 0.0 | 6.4 | 0.00 | 0.00 | 0.00 | 80 | 1008.0 |
| 20260504184413 | 28 | 156 | 0.0 | 4.8 | 0.00 | 0.00 | 0.00 | 80 | 1008.0 |
| 20260504183914 | 28 | 195 | 0.0 | 8.0 | 0.00 | 0.00 | 0.00 | 79 | 1008.0 |
| 20260504183413 | 28 | 196 | 1.6 | 8.0 | 0.00 | 0.00 | 0.00 | 79 | 1008.0 |
| 20260504182913 | 28 | 220 | 0.0 | 9.7 | 0.00 | 0.00 | 0.00 | 79 | 1008.0 |
| 20260504182414 | 29 | 200 | 1.6 | 9.7 | 0.00 | 0.00 | 0.00 | 79 | 1008.0 |
| 20260504181913 | 29 | 261 | 0.0 | 8.0 | 0.00 | 0.00 | 0.00 | 79 | 1008.0 |
| 20260504181413 | 29 | 233 | 0.0 | 6.4 | 0.00 | 0.00 | 0.00 | 79 | 1008.0 |
| 20260504180914 | 29 | 196 | 0.0 | 6.4 | 0.00 | 0.00 | 0.00 | 79 | 1008.0 |
| 20260504180414 | 29 | 202 | 3.2 | 6.4 | 0.00 | 0.00 | 0.00 | 79 | 1008.0 |
| 20260504175914 | 29 | 230 | 0.0 | 4.8 | 0.00 | 0.00 | 0.00 | 79 | 1008.0 |
| 20260504175413 | 29 | 203 | 0.0 | 6.4 | 0.00 | 0.00 | 0.00 | 79 | 1008.0 |
| 20260504174914 | 29 | 223 | 6.4 | 6.4 | 0.00 | 0.00 | 0.00 | 79 | 1008.0 |
| 20260504174413 | 29 | 205 | 0.0 | 3.2 | 0.00 | 0.00 | 0.00 | 79 | 1008.0 |
| 20260504173914 | 29 | 231 | 0.0 | 8.0 | 0.00 | 0.00 | 0.00 | 79 | 1008.0 |
| 20260504173414 | 29 | 228 | 0.0 | 9.7 | 0.00 | 0.00 | 0.00 | 79 | 1008.0 |
| 20260504172913 | 30 | 243 | 0.0 | 12.9 | 0.00 | 0.00 | 0.00 | 79 | 1008.0 |
| 20260504172414 | 30 | 187 | 6.4 | 12.9 | 0.00 | 0.00 | 0.00 | 79 | 1008.0 |
| 20260504171913 | 30 | 232 | 6.4 | 9.7 | 0.00 | 0.00 | 0.00 | 79 | 1008.0 |
| 20260504171414 | 30 | 223 | 3.2 | 8.0 | 0.00 | 0.00 | 0.00 | 79 | 1008.0 |
| 20260504170914 | 30 | 229 | 0.0 | 11.3 | 0.00 | 0.00 | 0.00 | 79 | 1009.0 |
| 20260504170414 | 30 | 238 | 0.0 | 11.3 | 0.00 | 0.00 | 0.00 | 79 | 1008.0 |
| 20260504160414 | 30 | 153 | 6.4 | 12.9 | 0.00 | 0.00 | 0.00 | 80 | 1008.0 |
| 20260504150913 | 31 | 142 | 0.0 | 19.3 | 0.00 | 0.00 | 0.00 | 79 | 1007.0 |
| 20260504150414 | 31 | 146 | 8.0 | 19.3 | 0.00 | 0.00 | 0.00 | 79 | 1007.0 |
| 20260504140914 | 31 | 116 | 3.2 | 17.7 | 0.00 | 0.00 | 0.00 | 81 | 1006.0 |
| 20260504140416 | 31 | 132 | 17.7 | 17.7 | 0.00 | 0.00 | 0.00 | 81 | 1006.0 |
| 20260504130415 | 31 | 117 | 12.9 | 17.7 | 0.00 | 0.00 | 0.00 | 82 | 1005.0 |
| 20260504110414 | 35 | 176 | 12.9 | 14.5 | 0.00 | 0.00 | 0.00 | 69 | 1004.0 |
| 20260504100414 | 35 | 165 | 4.8 | 14.5 | 0.00 | 0.00 | 0.00 | 65 | 1004.0 |
| 20260504081916 | 36 | 283 | 0.0 | 14.5 | 0.00 | 0.00 | 0.00 | 64 | 1005.0 |
| 20260504081413 | 35 | 293 | 11.3 | 14.5 | 0.00 | 0.00 | 0.00 | 65 | 1006.0 |
| 20260504080913 | 35 | 286 | 6.4 | 17.7 | 0.00 | 0.00 | 0.00 | 65 | 1006.0 |
| 20260504080414 | 35 | 281 | 0.0 | 17.7 | 0.00 | 0.00 | 0.00 | 65 | 1006.0 |
| 20260504050414 | 33 | 140 | 11.3 | 22.5 | 0.00 | 0.00 | 0.00 | 72 | 1009.0 |
| 20260504045913 | 33 | 179 | 11.3 | 20.9 | 0.00 | 0.00 | 0.00 | 73 | 1009.0 |
| 20260504045413 | 32 | 150 | 11.3 | 20.9 | 0.00 | 0.00 | 0.00 | 73 | 1009.0 |
| 20260504044914 | 32 | 146 | 11.3 | 17.7 | 0.00 | 0.00 | 0.00 | 73 | 1009.0 |
| 20260504044413 | 32 | 221 | 0.0 | 16.1 | 0.00 | 0.00 | 0.00 | 75 | 1009.0 |
| 20260504043913 | 31 | 138 | 9.7 | 22.5 | 0.00 | 0.00 | 0.00 | 74 | 1009.0 |
| 20260504043413 | 31 | 153 | 9.7 | 22.5 | 0.00 | 0.00 | 0.00 | 74 | 1009.0 |
| 20260504042913 | 31 | 226 | 4.8 | 17.7 | 0.00 | 0.00 | 0.00 | 74 | 1009.0 |
| 20260504042413 | 31 | 131 | 9.7 | 19.3 | 0.00 | 0.00 | 0.00 | 74 | 1009.0 |